Location: Newark
(41.7772°N, 74.7403°W)
Time: 20:25:18
(UTC+00:00)

Tiros 1 despin weight - All Passes

Search period start: 25 May 2020 00:00
Search period end: 04 June 2020 00:00
Orbit: 594 x 642 km, 48.2° (Epoch: 24 May)

Date Brightness Start Highest point End Pass type
(mag) Time Alt. Az. Time Alt. Az. Time Alt. Az.
25 May - 01:03:21 10° W 01:05:37 14° SW 01:07:53 10° SSW visible
25 May - 16:49:32 10° SSW 16:53:52 42° SE 16:58:08 10° ENE daylight
25 May - 18:30:54 10° W 18:35:23 55° NNW 18:39:48 10° ENE daylight
25 May - 20:13:21 10° WNW 20:17:31 35° N 20:21:38 10° ENE daylight
25 May - 21:55:13 10° WNW 21:59:38 57° NNE 22:03:59 10° E daylight
25 May - 23:36:57 10° WNW 23:41:05 38° SW 23:45:10 10° SSE daylight
26 May - 15:26:28 10° S 15:29:15 16° SE 15:32:02 10° E daylight
26 May - 17:05:41 10° SW 17:10:16 75° SSE 17:14:47 10° ENE daylight
26 May - 18:47:44 10° W 18:52:04 42° NNW 18:56:21 10° ENE daylight
26 May - 20:30:04 10° WNW 20:34:17 38° N 20:38:28 10° ENE daylight
26 May - 22:11:44 10° WNW 22:16:13 87° NNE 22:20:38 10° ESE daylight
26 May - 23:54:01 10° W 23:57:19 21° SW 00:00:36 10° S daylight
27 May - 15:41:26 10° SSW 15:45:27 30° SE 15:49:26 10° ENE daylight
27 May - 17:22:12 10° WSW 17:26:47 69° NNW 17:31:18 10° ENE daylight
27 May - 19:04:36 10° WNW 19:08:50 36° N 19:12:59 10° ENE daylight
27 May - 20:46:40 10° WNW 20:51:02 47° NNE 20:55:20 10° E daylight
27 May - 22:28:18 10° WNW 22:32:40 55° SW 22:36:58 10° SE daylight
28 May - 00:13:19 10° SW 00:13:26 10° SW 00:13:33 10° SW daylight
28 May - 14:20:05 10° SE 14:20:57 10° SE 14:21:49 10° ESE daylight
28 May - 15:57:16 10° SW 16:01:46 54° SE 16:06:14 10° ENE daylight
28 May - 17:38:58 10° W 17:43:26 48° NNW 17:47:49 10° ENE daylight
28 May - 19:21:24 10° WNW 19:25:37 36° N 19:29:46 10° ENE daylight
28 May - 21:03:11 10° WNW 21:07:39 67° NNE 21:12:05 10° ESE daylight
28 May - 22:45:06 10° WNW 22:48:58 30° SW 22:52:50 10° SSE daylight
29 May - 14:33:36 10° S 14:37:04 21° SE 14:40:31 10° E daylight
29 May - 16:13:36 10° WSW 16:18:13 89° NNW 16:22:48 10° ENE daylight
29 May - 17:55:51 10° WNW 18:00:08 39° N 18:04:24 10° ENE daylight
29 May - 19:38:04 10° WNW 19:42:22 41° N 19:46:37 10° E daylight
29 May - 21:19:42 10° WNW 21:24:11 77° SSW 21:28:37 10° SE daylight
29 May - 23:02:30 10° W 23:05:09 16° SW 23:07:48 10° S daylight
30 May - 14:49:01 10° SSW 14:53:20 38° SE 14:57:35 10° ENE daylight
30 May - 16:30:14 10° W 16:34:48 59° NNW 16:39:18 10° ENE daylight
30 May - 18:12:41 10° WNW 18:16:55 36° N 18:21:06 10° ENE daylight
30 May - 19:54:37 10° WNW 19:59:05 54° NNE 20:03:27 10° E daylight
30 May - 21:36:21 10° WNW 21:40:35 43° SW 21:44:46 10° SSE daylight
31 May - 13:26:14 10° SSE 13:28:44 14° SE 13:31:14 10° E daylight
31 May - 15:05:05 10° SW 15:09:42 69° SSE 15:14:16 10° ENE daylight
31 May - 16:47:04 10° W 16:51:28 44° NNW 16:55:50 10° ENE daylight
31 May - 18:29:26 10° WNW 18:33:42 38° N 18:37:55 10° ENE daylight
31 May - 20:11:08 10° WNW 20:15:40 81° NNE 20:20:07 10° ESE daylight
31 May - 21:53:18 10° W 21:56:51 23° SW 22:00:20 10° S daylight
01 Jun - 13:40:59 10° SSW 13:44:55 27° SE 13:48:49 10° E daylight
01 Jun - 15:21:34 10° WSW 15:26:12 75° NNW 15:30:47 10° ENE daylight
01 Jun - 17:03:56 10° WNW 17:08:14 37° N 17:12:27 10° ENE daylight
01 Jun - 18:46:03 10° WNW 18:50:27 45° NNE 18:54:46 10° E daylight
01 Jun - 20:27:41 10° WNW 20:32:09 61° SSW 20:36:31 10° SE daylight
01 Jun - 22:11:25 10° WSW 22:12:58 12° SW 22:14:31 10° SSW daylight
02 Jun - 13:56:43 10° SW 14:01:13 50° SE 14:05:40 10° ENE daylight
02 Jun - 15:38:18 10° W 15:42:49 51° NNW 15:47:18 10° ENE daylight
02 Jun - 17:20:45 10° WNW 17:25:00 36° N 17:29:13 10° ENE daylight
02 Jun - 19:02:34 10° WNW 19:07:06 63° NNE 19:11:33 10° ESE daylight
02 Jun - 20:44:26 10° WNW 20:48:29 33° SW 20:52:28 10° SSE daylight
03 Jun - 12:33:15 10° S 12:36:33 19° SE 12:39:50 10° E daylight
03 Jun - 14:12:58 10° WSW 14:17:39 85° SSE 14:22:16 10° ENE daylight
03 Jun - 15:55:09 10° W 15:59:32 40° N 16:03:52 10° ENE daylight
03 Jun - 17:37:26 10° WNW 17:41:47 40° N 17:46:03 10° E daylight
03 Jun - 19:19:06 10° WNW 19:23:39 83° SSW 19:28:08 10° ESE daylight
03 Jun - 21:01:40 10° W 21:04:40 18° SW 21:07:39 10° S daylight
